Location: Ecklingerode
(51.5036°N, 10.3122°E)
Time: 13:56:48
(UTC+00:00)

ATLAS 2AS CENTAUR R/B - Pass Details

Date: 29 October 2020
Orbit: 939 x 1273 km, 63.7° (Epoch: 23 November)

Event Time Altitude Azimuth Distance (km) Brightness Sun altitude
Rises 18:13:08 0° 314° (NW) 4,181 6.6 -21.7°
Reaches altitude 10° 18:16:00 10° 316° (NW) 3,178 5.8 -22.2°
Maximum altitude 18:23:40 77° 42° (NE) 1,187 2.8 -23.3°
Enters shadow 18:26:17 43° 120° (ESE) 1,542 3.1 -23.8°
